Terug naar catalogus

MORSAT-1

ActiefMilitairSSO
NORAD 67278·PAYLOAD·🇷🇺 Russia
Deze satellietnaam is nog niet bevestigd door officiële bronnen.

Gelanceerd Dec 28, 2025 vanaf Vostochny Cosmodrome

Loading…

Volgende Passages (komende 24 uur)

TLE

VersSource: Space-Track

Epoch: Sep 14, 2026, 10:34 UTC

1 67278U 25313AG  26257.44061143  .00005058  00000-0  21460-3 0  9993
2 67278  97.3824 330.5293 0015426  58.2942 301.9796 15.23440331 39540

Volg MORSAT-1 in realtime met AllMySat

Download on the App Store